Date String (YYYY-MM-DD hh:mm:ss) UTC,Instrument flags,Ambient pressure (hPa),Sample flow (lpm),Bypass flow (lpm),Sample temperature (°C),Ambient temperature (°C),ASC tube jacket temperature (°C),LED temperature (°C),Box temperature (°C),Sample RH (%),Span deviation,Mass concentration (μg/m³),Mass concentration (μg/m³),Mass concentration (μg/m³)
DateTimeUTC,F1_M11,P_M11,Q1_M11,Q2_M11,T1_M11,T2_M11,T3_M11,T4_M11,T5_M11,U1_M11,ZSPAN_M11,X0_M11,X2_M11,X1_M11
2021-11-22 15:00:00,,0832.3,5.01,0.00,23.3,22.5,00.0,32.2,25.1,10.7,0000.0,0008.83,0003.97,0003.60
2021-11-22 15:01:00,,0832.2,5.00,0.00,23.3,22.5,00.0,32.2,25.1,10.6,0000.0,0009.13,0003.97,0003.59
2021-11-22 15:02:00,,0832.3,4.99,0.00,23.3,22.6,00.0,32.2,25.1,10.3,0000.0,0009.40,0003.98,0003.57
2021-11-22 15:03:00,,0832.2,5.01,0.00,23.3,22.6,00.0,32.2,25.2,10.4,0000.0,0009.41,0003.94,0003.55
2021-11-22 15:04:00,,0832.2,5.00,0.00,23.4,22.6,00.0,32.2,25.2,10.4,0000.0,0009.51,0003.92,0003.52
2021-11-22 15:05:00,,0832.3,5.00,0.00,23.4,22.6,00.0,32.2,25.2,10.5,0000.0,0009.70,0003.91,0003.49
2021-11-22 15:06:00,,0832.4,4.99,0.00,23.4,22.6,00.0,32.3,25.2,10.5,0000.0,0009.51,0003.88,0003.47
2021-11-22 15:07:00,,0832.4,5.01,0.00,23.4,22.6,00.0,32.3,25.2,10.4,0000.0,0009.34,0003.86,0003.44
2021-11-22 15:08:00,,0832.3,4.99,0.00,23.4,22.7,00.0,32.3,25.3,10.3,0000.0,0008.78,0003.81,0003.41
2021-11-22 15:09:00,,0832.3,5.01,0.00,23.4,22.7,00.0,32.3,25.3,10.3,0000.0,0008.34,0003.74,0003.39
2021-11-22 15:10:00,,0832.4,4.99,0.00,23.5,22.7,00.0,32.3,25.3,10.2,0000.0,0007.65,0003.70,0003.37
2021-11-22 15:11:00,,0832.2,5.01,0.00,23.5,22.7,00.0,32.3,25.3,10.2,0000.0,0007.55,0003.65,0003.34
2021-11-22 15:12:00,,0832.3,5.00,0.00,23.5,22.7,00.0,32.4,25.3,10.1,0000.0,0007.01,0003.61,0003.32
2021-11-22 15:13:00,,0832.3,4.99,0.00,23.5,22.8,00.0,32.4,25.4,10.0,0000.0,0006.49,0003.60,0003.32
2021-11-22 15:14:00,,0832.3,5.01,0.00,23.5,22.8,00.0,32.4,25.4,10.0,0000.0,0006.05,0003.57,0003.32
2021-11-22 15:15:00,,0832.3,5.00,0.00,23.6,22.8,00.0,32.4,25.4,10.0,0000.0,0005.78,0003.54,0003.31
2021-11-22 15:16:00,,0832.3,5.01,0.00,23.6,22.8,00.0,32.4,25.4,10.1,0000.0,0005.16,0003.49,0003.28
2021-11-22 15:17:00,,0832.2,5.00,0.00,23.6,22.8,00.0,32.4,25.4,10.1,0000.0,0005.10,0003.47,0003.26
2021-11-22 15:18:00,,0832.3,5.00,0.00,23.6,22.8,00.0,32.5,25.4,10.0,0000.0,0004.75,0003.42,0003.24
2021-11-22 15:19:00,,0832.4,4.99,0.00,23.6,22.9,00.0,32.5,25.5,09.7,0000.0,0004.74,0003.40,0003.22
2021-11-22 15:20:00,,0832.3,5.00,0.00,23.6,22.9,00.0,32.5,25.5,09.4,0000.0,0004.71,0003.36,0003.18
2021-11-22 15:21:00,,0832.4,5.01,0.00,23.7,22.9,00.0,32.5,25.5,09.4,0000.0,0004.62,0003.32,0003.14
2021-11-22 15:22:00,,0832.4,5.01,0.00,23.7,22.9,00.0,32.5,25.5,09.6,0000.0,0005.94,0003.31,0003.11
2021-11-22 15:23:00,,0832.4,5.00,0.00,23.7,22.9,00.0,32.5,25.5,09.4,0000.0,0005.91,0003.29,0003.04
2021-11-22 15:24:00,,0832.4,5.00,0.00,23.7,23.0,00.0,32.6,25.5,09.5,0000.0,0005.81,0003.23,0002.96
2021-11-22 15:25:00,,0832.4,5.00,0.00,23.7,23.0,00.0,32.6,25.5,09.6,0000.0,0005.83,0003.20,0002.89
2021-11-22 15:26:00,,0832.5,5.00,0.00,23.7,23.0,00.0,32.6,25.5,09.6,0000.0,0005.93,0003.20,0002.85
2021-11-22 15:27:00,,0832.5,5.00,0.00,23.7,23.0,00.0,32.6,25.5,09.5,0000.0,0006.07,0003.22,0002.85
2021-11-22 15:28:00,,0832.4,5.00,0.00,23.7,23.0,00.0,32.6,25.6,09.6,0000.0,0005.99,0003.21,0002.83
2021-11-22 15:29:00,,0832.3,5.01,0.00,23.8,23.1,00.0,32.6,25.6,09.7,0000.0,0006.09,0003.21,0002.82
2021-11-22 15:30:00,,0832.3,4.99,0.00,23.8,23.1,00.0,32.7,25.6,09.7,0000.0,0006.30,0003.25,0002.81
2021-11-22 15:31:00,,0832.4,5.00,0.00,23.8,23.1,00.0,32.7,25.6,09.6,0000.0,0006.48,0003.31,0002.84
2021-11-22 15:32:00,,0832.3,5.00,0.00,23.8,23.1,00.0,32.7,25.6,09.7,0000.0,0006.72,0003.35,0002.86
2021-11-22 15:33:00,,0832.3,5.00,0.00,23.8,23.1,00.0,32.7,25.6,09.8,0000.0,0005.34,0003.34,0002.86
2021-11-22 15:34:00,,0832.4,5.01,0.00,23.9,23.1,00.0,32.7,25.7,09.7,0000.0,0005.26,0003.35,0002.89
2021-11-22 15:35:00,,0832.6,5.00,0.00,23.9,23.2,00.0,32.7,25.7,10.1,0000.0,0005.27,0003.37,0002.93
2021-11-22 15:36:00,,0832.6,4.99,0.00,23.9,23.2,00.0,32.8,25.7,10.4,0000.0,0005.19,0003.39,0002.99
2021-11-22 15:37:00,,0832.6,5.00,0.00,23.9,23.2,00.0,32.8,25.8,10.6,0000.0,0005.14,0003.41,0003.03
2021-11-22 15:38:00,,0832.6,5.01,0.00,23.9,23.2,00.0,32.8,25.8,10.6,0000.0,0005.10,0003.42,0003.07
2021-11-22 15:39:00,,0832.4,5.00,0.00,24.0,23.2,00.0,32.8,25.8,10.4,0000.0,0005.31,0003.47,0003.11
2021-11-22 15:40:00,,0832.4,5.00,0.00,24.0,23.2,00.0,32.8,25.9,10.2,0000.0,0005.50,0003.50,0003.14
2021-11-22 15:41:00,,0832.3,4.98,0.00,24.0,23.3,00.0,32.8,25.9,10.8,0000.0,0005.48,0003.51,0003.17
2021-11-22 15:42:00,,0832.3,5.01,0.00,24.0,23.3,00.0,32.9,25.9,11.2,0000.0,0005.90,0003.53,0003.22
2021-11-22 15:43:00,,0832.3,4.99,0.00,24.0,23.3,00.0,32.9,25.9,11.5,0000.0,0006.52,0003.59,0003.28
2021-11-22 15:44:00,,0832.4,5.00,0.00,24.0,23.3,00.0,32.9,25.9,11.5,0000.0,0006.77,0003.70,0003.34
2021-11-22 15:45:00,,0832.4,5.01,0.00,24.1,23.3,00.0,32.9,25.9,11.8,0000.0,0007.30,0003.82,0003.42
2021-11-22 15:46:00,,0832.3,4.99,0.00,24.1,23.3,00.0,32.9,26.0,12.0,0000.0,0008.32,0003.92,0003.50
2021-11-22 15:47:00,,0832.4,5.00,0.00,24.1,23.3,00.0,32.9,26.0,11.8,0000.0,0009.33,0004.04,0003.58
2021-11-22 15:48:00,,0832.4,5.01,0.00,24.1,23.3,00.0,33.0,26.0,11.8,0000.0,0009.90,0004.13,0003.63
2021-11-22 15:49:00,,0832.3,4.98,0.00,24.1,23.3,00.0,33.0,26.0,11.5,0000.0,0010.70,0004.22,0003.69
2021-11-22 15:50:00,,0832.4,5.01,0.00,24.2,23.3,00.0,33.0,26.0,11.3,0000.0,0011.35,0004.28,0003.74
2021-11-22 15:51:00,,0832.4,5.00,0.00,24.2,23.4,00.0,33.0,26.0,11.2,0000.0,0011.70,0004.40,0003.78
2021-11-22 15:52:00,,0832.4,5.01,0.00,24.2,23.4,00.0,33.0,26.0,11.7,0000.0,0011.73,0004.47,0003.85
2021-11-22 15:53:00,,0832.4,5.00,0.00,24.2,23.4,00.0,33.1,26.0,11.7,0000.0,0011.74,0004.52,0003.89
2021-11-22 15:54:00,,0832.3,4.99,0.00,24.2,23.4,00.0,33.1,26.1,11.2,0000.0,0011.80,0004.52,0003.91
2021-11-22 15:55:00,,0832.4,5.01,0.00,24.2,23.4,00.0,33.1,26.1,10.6,0000.0,0012.55,0004.48,0003.91
2021-11-22 15:56:00,,0832.5,5.00,0.00,24.2,23.4,00.0,33.1,26.1,10.2,0000.0,0013.01,0004.44,0003.87
2021-11-22 15:57:00,,0832.5,5.00,0.00,24.3,23.4,00.0,33.1,26.1,10.2,0000.0,0012.21,0004.39,0003.84
2021-11-22 15:58:00,,0832.4,4.99,0.00,24.3,23.5,00.0,33.1,26.1,10.3,0000.0,0011.28,0004.34,0003.81
2021-11-22 15:59:00,,0832.4,5.00,0.00,24.3,23.5,00.0,33.1,26.2,10.4,0000.0,0010.80,0004.28,0003.78
